Temp
25 24 24 24 24 23 23 22 22 22 23 22 22 23 22 22 22 22 23 22 22 22 22 21 21 22 24 25 25 25 26 26 24 23 21 20 19 20 18 18 17 18 16
26 24 24 24 24 23 22 22 21 22 23 23 22 22 22 22 21 22 22 22 22 22 21 21 21 22 22 22 24 24 25 24 25 23 22 19 20 19 19 18 20 20 19
25 22 23 22 23 24 23 22 22 21 22 23 22 22 22 21 21 21 21 21 21 21 20 21 21 21 22 23 23 23 23 23 22 23 22 22 21 20 18 19 19 20 19
26 25 23 23 24 24 23 22 23 22 21 22 22 22 21 22 21 20 21 21 21 20 21 21 21 21 21 21 23 22 22 23 23 23 22 21 21 20 20 21 19 19 20
26 26 25 24 24 24 22 22 22 22 22 22 22 22 21 21 21 20 21 20 20 20 20 20 20 20 20 21 22 22 21 23 23 23 23 22 22 20 21 21 22 21 18
25 26 25 24 23 23 23 22 22 22 22 22 22 21 19 21 21 20 21 20 19 20 20 20 19 20 20 20 20 20 21 22 23 24 23 23 21 21 21 21 21 20 21
25 25 24 23 23 23 23 22 22 22 22 21 21 21 20 20 20 20 20 20 20 20 20 20 21 20 19 19 20 20 20 20 20 20 21 21 20 20 20 18 20 20 21
24 25 24 23 23 23 23 22 22 23 22 21 21 20 20 19 20 19 19 19 20 19 19 20 21 19 19 19 20 20 19 19 19 20 19 19 19 18 18 18 18 18 18
24 23 23 23 23 23 23 23 23 23 22 22 22 20 19 19 19 19 19 19 19 18 19 19 19 19 18 19 20 19 19 18 18 19 18 18 18 17 17 18 19 20 21
24 23 23 23 23 23 23 23 23 23 22 22 20 20 20 20 19 19 19 21 20 20 19 19 18 18 19 19 19 19 19 18 19 17 17 18 18 17 17 17 20 21 22
24 24 23 23 23 23 21 22 23 21 20 21 20 21 20 20 19 19 19 20 20 20 21 20 19 18 18 18 18 19 20 19 18 18 19 19 18 18 18 17 18 19 21
24 23 23 23 24 23 23 23 22 21 22 21 22 21 20 20 19 19 19 19 20 21 22 22 21 19 18 18 18 18 18 18 19 20 20 20 20 20 19 18 17 17 19
24 24 24 23 24 23 23 23 22 21 23 22 21 22 21 20 20 19 19 19 19 20 22 22 20 19 18 18 17 17 17 18 20 21 21 21 21 21 20 19 17 16 16
25 25 24 24 22 23 23 23 24 23 23 24 22 23 23 22 21 19 18 18 18 19 20 20 19 18 18 18 17 17 17 19 20 21 21 21 21 21 20 20 19 19 18
25 25 25 24 23 23 25 26 25 25 24 25 26 25 23 23 23 22 20 20 20 19 20 21 19 19 20 19 20 20 19 19 19 20 20 21 21 21 20 20 20 20 20
26 26 27 27 25 25 24 25 24 24 24 24 25 25 26 25 24 22 20 20 20 20 19 21 22 21 21 22 21 21 21 20 20 20 20 20 21 21 21 21 20 20 20
28 28 28 27 28 26 26 25 26 23 23 23 23 23 24 24 23 22 21 20 19 19 20 21 23 23 23 22 22 22 22 21 21 20 21 21 21 21 21 21 21 20 20
27 28 28 27 28 28 27 27 27 27 24 22 21 21 21 21 21 21 20 19 17 17 20 22 23 23 23 23 23 23 23 22 21 21 20 21 21 21 21 21 21 21 20
26 28 27 28 28 28 28 28 28 28 28 26 25 20 19 19 19 19 19 18 20 20 19 21 23 24 24 24 23 23 23 23 23 22 21 21 21 21 21 22 22 21 21
26 27 28 29 28 28 28 28 28 28 28 28 27 26 20 18 17 17 17 17 20 22 22 22 22 23 24 24 23 23 23 22 22 22 22 22 21 21 22 22 22 22 21
22 27 26 28 28 28 27 28 29 29 29 29 28 27 24 19 21 21 21 19 19 21 23 24 24 23 23 23 23 23 23 23 23 22 22 22 21 22 22 21 22 22 21
19 24 24 26 27 27 27 28 28 28 29 29 29 28 25 22 24 24 23 22 22 22 23 24 24 24 24 23 23 23 23 23 23 23 23 22 22 22 21 22 21 21 21
21 22 24 25 25 26 26 26 27 28 28 28 29 29 22 24 24 25 26 26 25 25 24 23 24 24 24 24 23 23 23 23 23 23 23 23 22 22 22 22 21 20 20
24 24 23 24 25 25 26 27 28 27 28 28 28 28 26 24 24 25 25 25 25 25 25 25 24 24 24 24 24 24 23 23 23 23 23 22 22 22 21 21 21 20 20
26 26 26 26 26 26 25 24 25 24 25 26 27 27 26 26 26 26 25 25 25 25 26 26 25 25 24 23 24 24 24 23 22 22 22 21 21 21 21 20 20 19 18
25 26 26 26 26 27 27 28 27 24 24 24 25 25 26 26 26 27 27 27 27 26 25 26 26 25 25 24 23 22 22 22 21 20 19 19 20 20 20 19 19 18 19
Height
793 798 802 805 809 812 815 819 821 824 827 830 832 833 834 835 836 838 838 840 842 843 844 844 845 847 847 848 849 849 849 851 857 861 866 871 875 876 879 880 880 881 882
788 793 797 801 805 808 811 814 818 821 824 827 829 831 833 833 834 835 838 839 841 842 843 844 846 847 848 849 849 850 850 852 852 860 865 871 874 876 877 878 878 878 881
785 790 794 797 800 803 806 810 814 818 821 825 827 829 831 832 834 836 838 838 840 842 843 844 846 847 848 848 849 850 852 854 856 859 864 867 871 874 877 878 878 878 878
781 786 790 794 795 798 803 806 810 814 818 821 825 827 829 831 833 835 837 838 839 842 844 845 846 847 848 849 849 850 853 854 857 859 862 866 869 871 872 873 876 877 876
776 780 785 790 793 797 801 804 806 809 814 818 821 825 828 830 832 835 837 838 839 842 843 844 846 846 847 849 850 852 854 855 856 858 860 863 865 868 869 870 869 872 876
772 776 782 787 791 794 798 801 804 808 811 815 818 822 825 829 830 833 835 837 839 842 843 843 844 845 846 848 849 852 855 857 856 857 859 860 864 866 867 868 869 872 873
769 774 779 784 789 793 796 799 802 806 809 813 816 819 823 826 828 831 834 837 839 841 842 843 844 846 847 847 849 852 854 857 858 859 860 862 864 865 866 869 869 870 869
766 771 776 781 786 791 795 797 800 804 807 812 815 819 822 824 827 831 833 836 839 840 841 843 844 846 848 848 849 852 855 857 859 859 860 861 862 864 867 869 870 870 871
763 768 772 779 783 788 792 795 799 802 806 811 815 818 820 822 825 828 832 835 837 839 839 842 844 845 846 847 849 851 853 856 856 857 858 859 861 863 865 867 868 867 865
757 764 770 774 780 785 789 793 797 800 805 809 813 815 819 820 824 827 831 834 836 838 839 842 843 845 844 846 849 850 852 854 856 856 857 859 860 862 863 863 865 863 862
753 761 766 771 776 782 788 791 795 798 803 806 810 814 817 819 822 825 828 832 834 836 837 839 842 843 843 844 847 849 850 852 854 855 856 857 859 861 862 861 862 862 861
750 757 762 767 774 778 784 788 793 796 799 803 807 810 814 817 819 822 825 828 831 832 834 836 838 840 841 842 845 846 848 851 852 852 851 852 854 857 858 858 859 860 860
747 753 758 763 769 774 780 785 790 793 794 799 802 805 808 811 814 816 820 824 828 831 832 834 835 838 839 840 842 843 845 848 848 848 846 847 848 850 852 855 857 857 858
741 748 753 757 763 769 775 779 783 787 788 791 795 799 801 805 808 811 814 819 823 825 828 831 833 835 836 837 839 839 841 843 843 843 843 843 844 845 847 848 850 851 852
736 744 748 752 757 762 766 769 772 776 779 782 784 788 794 797 799 801 804 809 813 817 822 825 827 829 830 831 832 833 834 835 837 838 838 839 839 840 841 842 843 844 845
730 737 740 743 749 754 759 763 766 769 771 775 779 782 785 789 792 795 799 803 807 812 815 816 818 819 820 822 823 825 826 827 828 830 831 831 832 832 833 834 835 836 835
726 728 733 736 739 744 750 755 757 763 767 770 772 775 779 783 786 790 794 799 804 808 808 809 808 810 811 812 813 815 816 818 820 820 821 821 822 823 824 825 825 826 828
729 726 729 731 732 736 740 745 748 751 758 762 765 768 773 778 782 786 789 795 799 802 803 801 800 801 802 803 804 806 807 809 810 812 813 813 814 814 813 812 814 816 819
721 722 725 724 726 728 732 736 739 742 745 750 756 760 764 769 775 779 783 785 787 789 791 792 791 792 793 794 795 796 798 799 801 803 805 805 803 803 802 804 805 807 810
714 715 716 717 718 722 724 727 730 733 735 739 744 749 755 759 763 766 768 771 773 776 778 780 782 782 783 784 785 786 787 788 790 792 792 791 792 793 793 796 798 800 801
716 705 710 710 711 714 718 719 722 724 727 730 732 737 744 750 754 756 759 760 760 762 764 765 767 769 770 772 775 777 779 779 778 778 779 780 784 784 786 788 788 788 789
699 703 702 702 705 709 711 713 713 715 718 721 725 729 732 737 740 745 749 750 751 751 751 753 754 755 757 758 759 760 762 763 764 766 766 768 771 772 774 775 776 777 778
705 675 684 696 702 705 708 711 711 711 710 714 718 720 726 730 732 731 733 737 739 741 743 743 742 742 743 745 747 747 745 744 748 752 754 755 758 760 762 763 764 767 770
711 702 697 699 702 707 706 705 705 708 709 710 713 714 717 723 725 726 726 727 729 730 730 731 732 731 729 730 732 734 736 737 740 742 744 745 747 750 753 753 755 757 760
699 698 700 699 698 700 702 704 706 708 708 708 709 710 712 715 716 717 718 719 719 719 719 719 719 720 721 720 719 721 725 729 732 733 736 738 739 740 743 745 745 748 752
696 695 695 695 693 691 692 691 693 699 700 700 703 703 703 706 706 707 708 708 708 710 710 710 708 709 711 712 713 714 717 718 720 724 726 728 731 732 734 737 738 740 741
Wind_Speed
23 21 20 20 20 19 18 17 17 15 14 12 11 10 10 11 9 9 6 8 7 4 3 4 4 4 5 4 3 5 6 7 11 10 13 13 12 11 10 8 6 5 5
23 22 21 19 19 19 20 18 16 18 15 13 12 11 9 8 9 8 9 9 7 5 5 6 5 6 5 4 5 4 5 5 8 12 12 12 12 11 11 9 6 4 4
21 20 20 19 19 20 20 20 18 18 16 14 12 11 9 8 9 9 10 8 7 6 6 7 7 5 4 3 5 8 8 8 10 12 12 11 12 12 10 9 7 4 5
22 21 20 20 20 19 20 20 19 18 18 16 14 11 11 9 10 11 9 8 7 7 7 7 6 5 5 5 6 8 9 10 9 11 12 11 11 11 11 11 10 9 6
22 22 20 18 17 16 16 17 18 18 17 16 14 12 11 12 11 11 10 8 8 8 7 7 6 8 9 8 7 8 11 10 11 11 10 10 9 10 12 10 10 8 7
23 21 18 17 17 17 16 16 16 14 15 14 14 14 15 10 14 14 11 9 9 9 9 8 7 7 7 10 7 11 9 8 7 8 8 7 6 8 7 8 8 8 7
22 20 19 19 19 18 17 17 17 16 15 14 15 15 13 12 12 13 12 9 10 9 9 9 9 7 7 8 10 9 9 9 8 5 4 5 6 8 6 7 6 8 4
23 22 20 21 21 19 18 18 17 15 13 14 14 13 13 11 14 16 14 10 9 10 10 9 7 9 8 9 10 9 7 5 5 4 5 5 5 8 7 6 7 6 3
22 22 23 22 21 21 20 20 18 16 14 14 13 12 15 11 18 17 14 10 11 11 11 9 9 9 12 13 9 10 8 5 6 7 9 10 10 11 9 8 9 10 8
25 25 23 23 22 22 22 21 17 15 14 13 12 14 12 13 20 19 16 12 13 13 11 10 13 10 12 12 9 10 9 9 9 9 9 8 7 8 12 8 7 9 6
25 25 24 24 25 23 20 20 17 16 16 13 13 15 14 15 20 22 21 13 14 14 13 13 12 14 13 12 12 10 9 11 11 10 9 9 8 8 8 9 10 9 8
26 26 24 25 24 23 23 21 19 17 18 16 16 14 14 16 19 25 24 19 15 14 14 13 13 15 15 14 13 12 13 12 12 12 11 12 11 11 11 11 11 11 9
26 26 25 25 25 25 24 22 20 19 18 18 17 17 16 17 17 22 26 25 19 14 12 12 13 13 16 16 16 16 15 15 15 16 15 14 13 12 11 12 12 13 13
26 26 25 26 26 26 24 23 23 23 21 19 19 20 18 18 19 19 26 28 26 21 17 13 12 14 16 17 17 20 18 19 19 18 17 15 14 14 15 16 16 16 16
24 24 25 24 27 27 27 26 26 25 26 23 20 19 19 21 23 24 26 26 27 25 22 18 17 18 18 20 20 19 21 22 23 21 19 18 18 17 18 18 19 18 18
25 25 27 27 26 26 26 25 25 25 27 27 23 21 20 19 18 25 28 28 26 25 25 23 23 22 22 22 22 23 23 23 23 22 22 21 21 21 20 20 20 20 21
24 26 26 27 27 27 26 25 23 25 22 27 30 28 24 14 24 20 21 30 28 26 24 25 25 24 24 24 24 25 25 26 25 25 24 24 24 23 23 23 23 23 22
21 21 24 26 25 25 26 25 24 22 22 26 28 31 30 28 19 17 19 20 20 28 26 27 26 27 26 26 26 26 26 25 27 27 27 26 25 25 26 27 26 25 22
19 22 23 21 25 25 24 24 23 22 20 18 20 22 30 25 24 22 20 25 26 26 31 31 29 27 26 27 27 27 27 27 27 27 27 27 28 29 30 28 27 26 26
19 24 23 23 23 25 25 25 24 23 22 21 21 20 18 30 29 29 32 30 30 29 28 29 30 29 29 28 28 29 28 28 29 30 32 31 31 31 30 28 27 26 26
32 26 24 25 24 24 24 25 23 22 21 21 22 22 24 22 25 28 29 31 33 34 31 30 29 30 31 30 30 29 29 30 31 32 32 32 32 32 29 29 28 28 29
35 23 26 21 21 22 22 23 24 23 22 22 21 22 31 30 22 23 26 29 31 33 32 31 31 31 31 31 31 32 33 34 35 33 31 30 30 29 29 29 29 30 29
20 26 15 18 18 19 20 19 21 23 23 22 21 20 24 24 24 24 24 25 25 27 27 29 31 32 32 32 33 34 34 36 34 32 31 29 28 27 27 28 27 26 26
14 12 12 13 14 15 17 17 16 16 16 16 17 18 19 20 21 22 23 24 24 26 27 28 31 33 33 34 34 35 35 33 29 28 29 27 25 25 26 25 25 24 22
15 14 16 17 17 18 19 20 21 18 17 18 22 21 20 22 24 23 23 23 24 26 29 29 31 33 35 37 35 33 30 30 29 24 21 21 24 25 24 23 23 23 22
20 19 19 20 21 20 18 18 17 18 18 17 19 20 22 25 26 25 27 26 26 27 28 31 32 33 33 32 32 32 32 31 27 29 29 24 23 24 23 24 23 22 21
Wind_Direction
199 199 201 207 209 212 214 214 216 214 203 207 206 203 202 207 201 209 198 179 173 180 169 158 178 193 182 181 197 189 172 188 141 150 147 154 162 159 157 162 158 146 141
197 196 199 203 207 209 212 212 212 209 201 203 196 195 192 196 196 197 192 177 168 174 168 155 165 171 165 176 200 183 185 175 150 158 156 157 174 178 179 182 195 162 152
192 194 195 198 203 211 212 211 206 207 202 203 200 205 197 187 191 189 183 168 164 167 167 171 175 167 167 183 204 179 168 162 150 157 163 165 168 183 190 205 210 200 203
192 193 194 199 204 210 210 208 205 205 204 203 203 205 202 192 182 186 180 168 153 162 172 171 173 167 164 169 157 159 152 148 136 152 155 157 179 185 204 202 208 222 203
191 192 192 198 203 205 206 203 202 205 205 198 198 192 186 179 180 186 177 166 163 171 170 168 167 172 167 165 146 151 149 150 153 153 154 164 176 185 202 210 226 185 212
187 190 187 192 193 197 195 197 199 199 191 188 195 187 179 177 196 183 170 164 160 180 173 165 175 172 173 171 149 153 150 154 164 172 166 184 171 207 201 202 207 192 185
183 183 185 187 189 191 191 193 193 193 181 185 185 177 179 182 190 183 171 170 173 179 177 169 175 175 154 160 171 174 171 168 161 171 179 207 185 210 200 205 208 204 245
181 183 185 185 185 187 188 187 185 187 181 183 178 177 176 184 188 184 174 169 180 171 171 172 172 161 162 153 152 154 152 165 178 189 204 203 191 180 178 193 189 197 195
180 180 179 183 181 184 186 186 185 185 180 186 184 185 183 190 186 187 175 176 174 172 164 170 167 164 166 154 157 150 151 159 181 186 170 177 184 178 177 174 185 196 193
179 186 183 178 181 186 187 184 186 188 187 185 191 192 190 190 195 192 181 188 179 175 174 180 171 178 163 161 163 161 168 170 159 149 156 156 161 177 183 197 206 229 222
179 182 179 177 177 182 187 183 187 188 188 191 192 190 194 195 198 196 193 193 184 185 185 189 196 192 180 174 165 171 182 178 184 179 185 185 188 198 209 218 220 227 231
178 180 177 177 181 180 184 187 192 190 189 194 196 197 198 199 203 202 202 193 193 192 198 200 203 207 197 193 186 195 194 190 203 207 206 209 211 216 220 221 220 219 232
179 184 180 180 184 181 186 190 191 193 196 200 197 202 203 202 207 215 208 204 201 198 206 214 205 216 209 209 208 211 205 209 220 222 221 223 222 224 226 226 231 234 238
183 186 186 182 184 183 191 194 196 195 203 199 199 209 206 202 205 205 207 209 211 210 214 216 212 212 216 211 221 217 214 221 223 229 230 229 227 225 226 225 226 226 231
185 193 191 190 189 191 199 202 205 205 200 205 211 212 206 207 213 205 197 201 206 210 207 211 214 215 213 215 218 217 217 221 227 230 232 233 232 229 229 225 227 230 232
188 195 199 194 192 198 200 207 213 218 219 209 209 212 215 220 212 212 210 204 206 205 202 212 219 219 220 219 219 221 221 221 224 227 229 231 233 232 231 227 227 228 233
202 197 201 196 198 199 202 200 205 217 220 224 222 214 212 213 219 219 218 212 211 206 212 220 224 223 224 225 224 224 225 226 227 227 228 229 230 232 231 232 229 228 233
229 212 208 200 200 200 204 211 211 205 205 218 222 222 225 225 225 224 216 210 210 214 226 230 228 228 227 227 227 229 230 229 229 231 232 232 232 233 233 232 232 234 228
224 226 212 202 203 201 202 205 211 213 213 211 205 213 216 217 220 223 217 205 211 216 221 229 233 234 233 234 234 234 235 234 234 235 236 237 236 235 237 237 236 233 232
229 231 212 208 199 200 199 202 204 209 208 209 209 210 198 205 205 210 211 213 216 224 225 227 233 235 236 235 234 233 235 236 238 238 240 240 238 238 240 240 239 238 231
276 212 208 212 203 199 204 204 205 204 207 209 206 203 201 201 212 214 215 216 218 224 227 228 228 231 234 235 236 238 239 240 240 239 240 242 243 245 243 244 245 242 241
283 219 195 208 209 198 206 210 206 207 210 212 215 211 207 200 209 218 223 227 227 228 228 230 231 232 233 232 230 231 234 239 241 241 242 243 244 244 243 243 241 243 239
284 294 194 198 209 209 210 220 215 215 206 215 217 212 195 212 220 219 223 227 231 234 236 235 234 235 236 236 236 235 233 234 237 238 240 240 241 242 242 241 239 238 240
257 267 239 216 219 234 241 232 225 220 219 212 218 221 203 210 226 231 230 230 235 240 239 239 241 241 236 234 236 238 241 242 240 241 241 242 241 241 241 241 240 241 239
258 254 255 253 249 233 227 224 228 235 240 242 243 236 234 236 239 236 238 236 239 240 243 242 244 245 244 240 237 239 241 244 240 237 239 240 239 237 238 236 234 234 233
256 258 257 260 265 265 261 248 228 225 232 231 237 238 241 248 244 244 243 241 246 250 254 250 247 246 247 248 248 245 243 246 243 237 232 232 237 236 233 232 232 231 227